Date String (YYYY-MM-DD hh:mm:ss) UTC,Instrument flags,absolute air pressure of the measurement (hPa),sample flow rate (lpm),inlet stack bypass flow (lpm),air temperature of the measurement (°C),ambient temperature measured by the external sensor (°C),aerosol sample conditioner tube jacket temperature (°C),OPC LED temperature (°C),internal box temperature (°C),relative humidity of the measurement (%),span deviation,mass concentration of particles derived from Lorenz-Mie calculation of OPC scattering (μg/m³),mass concentration of particles derived from Lorenz-Mie calculation of OPC scattering (μg/m³),mass concentration of particles derived from Lorenz-Mie calculation of OPC scattering (μg/m³)
DateTimeUTC,F1_M11,P_M11,Q1_M11,Q2_M11,T1_M11,T2_M11,T3_M11,T4_M11,T5_M11,U1_M11,ZSPAN_M11,X2_M11,X0_M11,X1_M11
2024-02-28 10:00:00,SystemResetWarning,0826.1,4.99,000.00,019.1,019.5,000.0,027.3,021.2,04.9,0000.0,0001.33,0004.72,0000.61
2024-02-28 10:01:00,SystemResetWarning,0826.1,5.00,000.00,019.1,019.3,000.0,027.3,021.0,04.7,0000.0,0001.36,0004.22,0000.62
2024-02-28 10:02:00,SystemResetWarning,0826.1,5.01,000.00,019.0,019.0,000.0,027.3,020.8,04.7,0000.0,0001.31,0003.39,0000.62
2024-02-28 10:03:00,SystemResetWarning,0826.2,5.01,000.00,019.0,018.8,000.0,027.3,020.7,04.6,0000.0,0001.26,0002.97,0000.62
2024-02-28 10:04:00,SystemResetWarning,0826.0,4.99,000.00,018.9,018.6,000.0,027.3,020.6,04.7,0000.0,0001.26,0004.27,0000.63
2024-02-28 10:05:00,SystemResetWarning,0826.0,5.00,000.00,018.9,018.4,000.0,027.2,020.4,04.6,0000.0,0001.27,0004.29,0000.61
2024-02-28 10:06:00,SystemResetWarning,0826.1,5.00,000.00,018.8,018.2,000.0,027.2,020.4,04.8,0000.0,0001.19,0004.17,0000.59
2024-02-28 10:07:00,SystemResetWarning,0826.2,4.99,000.00,018.7,018.1,000.0,027.2,020.3,04.8,0000.0,0001.18,0004.03,0000.58
2024-02-28 10:08:00,SystemResetWarning,0826.2,5.01,000.00,018.7,018.0,000.0,027.2,020.3,04.7,0000.0,0001.16,0004.09,0000.58
2024-02-28 10:09:00,SystemResetWarning,0826.2,5.00,000.00,018.6,017.9,000.0,027.2,020.2,04.7,0000.0,0001.14,0005.17,0000.57
2024-02-28 10:10:00,SystemResetWarning,0826.2,5.00,000.00,018.6,017.8,000.0,027.1,020.2,04.8,0000.0,0001.15,0005.72,0000.57
2024-02-28 10:11:00,SystemResetWarning,0826.2,4.99,000.00,018.5,017.8,000.0,027.1,020.1,04.7,0000.0,0001.13,0005.67,0000.56
2024-02-28 10:12:00,SystemResetWarning,0826.2,5.00,000.00,018.5,018.0,000.0,027.2,020.3,04.8,0000.0,0001.06,0005.47,0000.55
2024-02-28 10:13:00,SystemResetWarning,0826.3,5.01,000.00,018.7,018.9,000.0,027.3,020.9,05.2,0000.0,0001.10,0005.62,0000.55
2024-02-28 10:14:00,SystemResetWarning,0826.3,4.99,000.00,018.9,019.3,000.0,027.3,021.1,06.2,0000.0,0001.11,0005.72,0000.54
2024-02-28 10:15:00,SystemResetWarning,0826.2,4.99,000.00,019.0,019.1,000.0,027.3,021.0,05.9,0000.0,0001.10,0004.28,0000.53
2024-02-28 10:16:00,SystemResetWarning,0826.0,5.00,000.00,018.9,018.9,000.0,027.2,020.8,05.3,0000.0,0001.02,0004.00,0000.54
2024-02-28 10:17:00,SystemResetWarning,0826.1,5.00,000.00,018.9,018.6,000.0,027.2,020.6,05.2,0000.0,0001.03,0004.05,0000.54
2024-02-28 10:18:00,SystemResetWarning,0826.2,5.00,000.00,018.8,018.3,000.0,027.2,020.4,05.2,0000.0,0001.03,0003.99,0000.54
2024-02-28 10:19:00,SystemResetWarning,0826.1,5.00,000.00,018.7,018.1,000.0,027.2,020.3,05.5,0000.0,0001.02,0003.87,0000.54
2024-02-28 10:20:00,SystemResetWarning,0826.2,5.00,000.00,018.7,018.0,000.0,027.1,020.2,05.4,0000.0,0000.99,0003.29,0000.53
2024-02-28 10:21:00,SystemResetWarning,0826.2,5.01,000.00,018.6,017.9,000.0,027.1,020.1,05.4,0000.0,0001.03,0002.19,0000.53
2024-02-28 10:22:00,SystemResetWarning,0826.2,5.00,000.00,018.5,017.8,000.0,027.1,020.1,05.1,0000.0,0001.05,0002.23,0000.53
2024-02-28 10:23:00,SystemResetWarning,0826.0,5.00,000.00,018.5,017.9,000.0,027.2,020.2,05.0,0000.0,0001.06,0002.21,0000.53
2024-02-28 10:24:00,SystemResetWarning,0825.9,5.01,000.00,018.7,018.6,000.0,027.3,020.7,05.2,0000.0,0001.05,0002.17,0000.52
2024-02-28 10:25:00,SystemResetWarning,0825.8,4.98,000.00,018.9,019.2,000.0,027.3,021.0,05.2,0000.0,0001.00,0002.07,0000.51
2024-02-28 10:26:00,SystemResetWarning,0825.7,4.99,000.00,018.9,019.0,000.0,027.3,020.9,05.2,0000.0,0000.95,0002.37,0000.52
2024-02-28 10:27:00,SystemResetWarning,0825.7,5.02,000.00,018.9,018.7,000.0,027.2,020.7,05.3,0000.0,0001.01,0003.10,0000.55
2024-02-28 10:28:00,SystemResetWarning,0825.7,5.00,000.00,018.8,018.5,000.0,027.2,020.5,05.4,0000.0,0001.07,0003.74,0000.59
2024-02-28 10:29:00,SystemResetWarning,0825.8,4.99,000.00,018.8,018.3,000.0,027.2,020.3,05.3,0000.0,0001.05,0004.84,0000.59
2024-02-28 10:30:00,SystemResetWarning,0825.6,5.00,000.00,018.7,018.1,000.0,027.1,020.2,05.3,0000.0,0001.01,0005.07,0000.59
2024-02-28 10:31:00,SystemResetWarning,0825.5,5.01,000.00,018.6,017.9,000.0,027.1,020.1,05.4,0000.0,0001.06,0005.20,0000.59
2024-02-28 10:32:00,SystemResetWarning,0825.4,5.00,000.00,018.5,017.7,000.0,027.1,020.0,05.4,0000.0,0001.03,0005.12,0000.60
2024-02-28 10:33:00,SystemResetWarning,0825.6,5.01,000.00,018.5,017.7,000.0,027.1,020.1,05.4,0000.0,0000.98,0005.01,0000.59
2024-02-28 10:34:00,SystemResetWarning,0825.9,4.99,000.00,018.6,018.3,000.0,027.2,020.5,05.6,0000.0,0000.99,0005.17,0000.59
2024-02-28 10:35:00,SystemResetWarning,0826.0,5.00,000.00,018.8,019.2,000.0,027.3,021.1,06.2,0000.0,0000.99,0005.24,0000.60
2024-02-28 10:36:00,SystemResetWarning,0825.9,4.99,000.00,019.0,019.4,000.0,027.3,021.2,05.9,0000.0,0000.98,0005.19,0000.60
2024-02-28 10:37:00,SystemResetWarning,0826.0,4.99,000.00,019.0,019.2,000.0,027.3,021.0,05.9,0000.0,0000.97,0004.97,0000.59
2024-02-28 10:38:00,SystemResetWarning,0825.9,4.99,000.00,019.0,019.0,000.0,027.2,020.8,05.8,0000.0,0000.92,0004.30,0000.55
2024-02-28 10:39:00,SystemResetWarning,0825.8,5.01,000.00,018.9,018.7,000.0,027.2,020.7,05.6,0000.0,0000.88,0003.68,0000.52
2024-02-28 10:40:00,SystemResetWarning,0825.7,5.00,000.00,018.9,018.5,000.0,027.2,020.5,05.4,0000.0,0000.89,0002.63,0000.51
2024-02-28 10:41:00,SystemResetWarning,0825.8,4.99,000.00,018.8,018.3,000.0,027.2,020.4,05.5,0000.0,0000.96,0002.38,0000.52
2024-02-28 10:42:00,SystemResetWarning,0825.6,4.99,000.00,018.7,018.1,000.0,027.2,020.3,05.4,0000.0,0000.95,0002.45,0000.52
2024-02-28 10:43:00,SystemResetWarning,0825.5,5.01,000.00,018.7,017.9,000.0,027.1,020.1,05.4,0000.0,0000.98,0002.52,0000.52
2024-02-28 10:44:00,SystemResetWarning,0825.5,5.01,000.00,018.6,017.8,000.0,027.1,020.0,05.4,0000.0,0001.00,0003.04,0000.52
2024-02-28 10:45:00,SystemResetWarning,0825.4,5.00,000.00,018.5,017.6,000.0,027.2,020.0,05.5,0000.0,0000.97,0002.87,0000.52
2024-02-28 10:46:00,SystemResetWarning,0825.4,5.00,000.00,018.6,018.1,000.0,027.3,020.4,05.5,0000.0,0000.95,0002.77,0000.51
2024-02-28 10:47:00,SystemResetWarning,0825.4,5.00,000.00,018.8,018.9,000.0,027.3,020.9,05.4,0000.0,0000.99,0002.83,0000.54
2024-02-28 10:48:00,SystemResetWarning,0825.5,4.99,000.00,019.0,019.3,000.0,027.3,021.2,05.3,0000.0,0001.05,0002.70,0000.57
2024-02-28 10:49:00,SystemResetWarning,0825.3,4.99,000.00,019.0,019.1,000.0,027.3,021.0,05.3,0000.0,0001.07,0003.25,0000.60
2024-02-28 10:50:00,SystemResetWarning,0825.3,5.00,000.00,018.9,018.8,000.0,027.2,020.7,05.3,0000.0,0001.09,0004.22,0000.61
2024-02-28 10:51:00,SystemResetWarning,0825.4,5.00,000.00,018.9,018.6,000.0,027.2,020.5,05.3,0000.0,0001.15,0004.91,0000.63
2024-02-28 10:52:00,SystemResetWarning,0825.3,5.01,000.00,018.8,018.3,000.0,027.2,020.3,05.3,0000.0,0001.15,0005.00,0000.63
2024-02-28 10:53:00,SystemResetWarning,0825.2,5.00,000.00,018.7,018.0,000.0,027.1,020.2,05.3,0000.0,0001.16,0005.01,0000.63
2024-02-28 10:54:00,SystemResetWarning,0825.3,5.00,000.00,018.6,017.8,000.0,027.1,020.1,05.3,0000.0,0001.15,0005.03,0000.62
2024-02-28 10:55:00,SystemResetWarning,0825.4,5.00,000.00,018.5,017.6,000.0,027.1,020.0,05.4,0000.0,0001.19,0004.72,0000.62
2024-02-28 10:56:00,SystemResetWarning,0825.5,5.01,000.00,018.6,018.0,000.0,027.2,020.4,05.5,0000.0,0001.23,0004.63,0000.63
2024-02-28 10:57:00,SystemResetWarning,0825.5,5.02,000.00,018.8,018.9,000.0,027.3,020.9,05.4,0000.0,0001.28,0004.77,0000.63
2024-02-28 10:58:00,SystemResetWarning,0825.6,4.99,000.00,019.0,019.4,000.0,027.4,021.2,05.3,0000.0,0001.27,0004.82,0000.62
2024-02-28 10:59:00,SystemResetWarning,0825.6,4.99,000.00,019.0,019.2,000.0,027.3,021.0,05.3,0000.0,0001.22,0004.65,0000.59
